sat.trackr.live / text

‹ back to catalog

DMC3-FM1

NORAD 40715 · 2015-032A

PAYLOAD ACTIVE UNKNOWN

§ Identity

Operator
Country
UK
Launch date
2015-07-10
Launch site
SRILR
Launch vehicle
Mass (kg)
RCS (m²)
1.57

Purposes: earth_obs

External: N2YO · Heavens-Above · Gunter

§ Orbital elements

Epoch: 2026-09-20T03:55:10.568064Z

Period
96.92 min
Inclination
97.6311°
Eccentricity
0.0007017
Mean motion
14.85820526 rev/d
Perigee alt
606.1 km
Apogee alt
615.9 km
Semi-major
6,989.1 km
B*
2.2586e-5
RAAN
124.5508°
Arg perigee
96.2198°
Mean anomaly
263.9818°
Rev number
60,401

§ Raw data

DMC3-FM11 40715U 15032A   26263.16331676  .00000145  00000+0  22586-4 0  99962 40715  97.6311 124.5508 0007017  96.2198 263.9818 14.85820526604010

JSON: /api/v1/satellites/40715 · /tle

For live sub-satellite position, see the globe view (requires WebGL).

§ Visibility from observer

Set your observer location to see the next 7 days of passes ≥ 10°. The values pass through the URL so the page stays shareable.

No JS? Fill the form by hand. The geolocation button needs JavaScript.

§ Radio — SatNOGS DB

ModeDescriptionDownlinkUplink
FM Mode X (375MHz) 8.213 GHz
BPSK Telemetry 2.230 GHz

2 transmitters · refreshed weekly from db.satnogs.org